This demonstration page uses our WeatherBlox Daily Observations layout. Learn more.

Left ArrowRight Arrow

Hourly Observations for October 24, 2016

Temp ( °F °C ) Dew Point ( °F °C ) Humidity (%) Winds ( mph kmh ) Pressure ( in mb ) Visibility ( mi km ) Precip ( " mm )
12:54 am 00:54 Clear 46 7.8 38 3.3 73 73 N 7 11 30.29 1026 10 16.0934 0 0
1:54 am 01:54 Clear 44 6.7 38 3.3 79 79 NNE 8 13 30.31 1026 10 16.0934 0 0
2:54 am 02:54 Clear 42 5.6 37 2.8 82 82 N 5 7 30.33 1027 10 16.0934 0 0
3:54 am 03:54 Clear 42 5.6 38 3.3 85 85 N 7 11 30.34 1028 10 16.0934 0 0
4:54 am 04:54 Clear 38 3.3 36 2.2 93 93 N 6 9 30.35 1028 10 16.0934 0 0
5:54 am 05:54 Clear 37 2.8 35 1.7 93 93 N 6 9 30.37 1029 10 16.0934 0 0
6:54 am 06:54 Clear 37 2.8 36 2.2 96 96 N 7 11 30.39 1029 10 16.0934 0 0
7:54 am 07:54 Sunny 37 2.8 35 1.7 93 93 N 5 7 30.4 1030 10 16.0934 0 0
8:54 am 08:54 Sunny 42 5.6 39 3.9 89 89 N 3 6 30.41 1030 9 14.48406 0 0
9:54 am 09:54 Sunny 47 8.3 42 5.6 83 83 E 7 11 30.42 1030 9 14.48406 0 0
10:54 am 10:54 Sunny 53 11.7 43 6.1 69 69 ESE 13 20 30.4 1030 10 16.0934 0 0
11:54 am 11:54 Sunny 56 13.3 43 6.1 62 62 SE 10 17 30.39 1029 10 16.0934 0 0
12:54 pm 12:54 Sunny 59 15 44 6.7 58 58 E 6 9 30.37 1028 10 16.0934 0 0
1:54 pm 13:54 Sunny 61 16.1 44 6.7 54 54 E 9 15 30.33 1027 10 16.0934 0 0
2:54 pm 14:54 Sunny 63 17.2 42 5.6 47 47 ESE 12 19 30.31 1026 10 16.0934 0 0
3:54 pm 15:54 Sunny 64 17.8 42 5.6 45 45 E 7 11 30.28 1026 10 16.0934 0 0
4:54 pm 16:54 Sunny 64 17.8 42 5.6 45 45 E 9 15 30.27 1025 10 16.0934 0 0
5:54 pm 17:54 Sunny 62 16.7 41 5 46 46 ESE 9 15 30.26 1025 10 16.0934 0 0
6:54 pm 18:54 Clear 58 14.4 42 5.6 56 56 ESE 6 9 30.27 1025 10 16.0934 0 0
7:54 pm 19:54 Clear 56 13.3 42 5.6 60 60 ESE 8 13 30.27 1025 10 16.0934 0 0
8:54 pm 20:54 Clear 57 13.9 43 6.1 60 60 SE 10 17 30.26 1025 10 16.0934 0 0
9:54 pm 21:54 Clear 56 13.3 44 6.7 65 65 ESE 9 15 30.25 1024 10 16.0934 0 0
10:54 pm 22:54 Clear 55 12.8 44 6.7 67 67 ESE 7 11 30.25 1025 10 16.0934 0 0
11:54 pm 23:54 Clear 55 12.8 44 6.7 67 67 ESE 6 9 30.25 1024 10 16.0934 0 0

Powered by AerisWeather